RYR2AL LOWW-LEIB

Flight info

Callsign RYR2AL
Flight time 2h 18m
Altitude 34000
Route OSPEN DCT ABRUK DCT SETAL DCT DETSA/N0442F350 DCT ADOSA DCT GOLAS DCT PIDAD DCT TALEP DCT RARQU/N0439F370 DCT BALEN/N0432F330 DCT SORAS N850 POS
Aircraft A320/M-SDE3FGHIRWY/LB1

Departure

Time 2026-04-25 15:03
Airport Vienna International Airport (LOWW)

Arrival

Time 2026-04-25 17:21
Airport Ibiza Airport (LEIB)
Time Latitude Longitude Altitude Speed Heading
2026-04-25 14:44 48.11955 16.55591 620 ft 0 kts 64°
2026-04-25 14:55 48.11950 16.55577 621 ft 4 kts 69°
2026-04-25 14:55 48.11945 16.55539 622 ft 4 kts 98°
2026-04-25 14:55 48.11955 16.55505 624 ft 4 kts 139°
2026-04-25 14:56 48.11977 16.55489 611 ft 4 kts 181°
2026-04-25 14:56 48.11990 16.55492 616 ft 0 kts 206°
2026-04-25 14:58 48.11966 16.55474 615 ft 5 kts 206°
2026-04-25 14:59 48.11945 16.55459 611 ft 9 kts 206°
2026-04-25 14:59 48.11860 16.55428 609 ft 13 kts 192°
2026-04-25 14:59 48.11794 16.55480 613 ft 11 kts 116°
2026-04-25 14:59 48.11761 16.55580 609 ft 14 kts 116°
2026-04-25 15:00 48.11692 16.55791 608 ft 30 kts 116°
2026-04-25 15:00 48.11596 16.56088 617 ft 32 kts 114°
2026-04-25 15:00 48.11497 16.56389 611 ft 33 kts 116°
2026-04-25 15:00 48.11398 16.56696 619 ft 33 kts 116°
2026-04-25 15:01 48.11295 16.57006 613 ft 33 kts 116°
2026-04-25 15:01 48.11206 16.57232 609 ft 16 kts 155°
2026-04-25 15:01 48.11112 16.57181 614 ft 15 kts 210°
2026-04-25 15:01 48.11066 16.57072 609 ft 14 kts 285°
2026-04-25 15:02 48.11114 16.56921 609 ft 23 kts 296°
2026-04-25 15:02 48.11278 16.56417 617 ft 86 kts 296°
2026-04-25 15:02 48.11626 16.55350 613 ft 140 kts 296°
2026-04-25 15:02 48.12100 16.53884 877 ft 161 kts 289°
2026-04-25 15:03 48.12157 16.52260 1541 ft 164 kts 249°
2026-04-25 15:03 48.11372 16.50938 1994 ft 185 kts 218°
2026-04-25 15:03 48.10244 16.49778 2218 ft 208 kts 219°
2026-04-25 15:03 48.08982 16.48457 2485 ft 233 kts 222°
2026-04-25 15:04 48.07760 16.46722 2843 ft 252 kts 230°
2026-04-25 15:04 48.06532 16.44769 3506 ft 262 kts 231°
2026-04-25 15:04 48.05310 16.42779 4336 ft 264 kts 231°
2026-04-25 15:04 48.04048 16.40720 5222 ft 267 kts 231°
2026-04-25 15:05 48.02787 16.38667 6086 ft 269 kts 231°
2026-04-25 15:05 48.01533 16.36633 6892 ft 271 kts 231°
2026-04-25 15:05 48.00250 16.34560 7687 ft 273 kts 231°
2026-04-25 15:06 47.97632 16.30350 9211 ft 280 kts 230°
2026-04-25 15:06 47.96300 16.28215 9966 ft 283 kts 230°
2026-04-25 15:06 47.94925 16.26011 10316 ft 301 kts 230°
2026-04-25 15:06 47.93445 16.23630 10496 ft 323 kts 230°
2026-04-25 15:07 47.91886 16.21134 10988 ft 332 kts 230°
2026-04-25 15:07 47.90301 16.18606 11640 ft 336 kts 230°
2026-04-25 15:07 47.88695 16.16048 12298 ft 339 kts 230°
2026-04-25 15:07 47.87073 16.13463 12965 ft 343 kts 230°
2026-04-25 15:08 47.85439 16.10858 13638 ft 346 kts 230°
2026-04-25 15:08 47.83786 16.08227 14242 ft 349 kts 230°
2026-04-25 15:08 47.82119 16.05579 14853 ft 351 kts 230°
2026-04-25 15:08 47.80439 16.02915 15419 ft 354 kts 230°
2026-04-25 15:09 47.78768 16.00267 15962 ft 357 kts 230°
2026-04-25 15:09 47.77063 15.97562 16542 ft 359 kts 230°
2026-04-25 15:09 47.73620 15.92107 17727 ft 363 kts 231°
2026-04-25 15:10 47.71880 15.89362 18288 ft 366 kts 231°
2026-04-25 15:10 47.70126 15.86594 18771 ft 369 kts 231°
2026-04-25 15:10 47.66586 15.81012 19817 ft 373 kts 230°
2026-04-25 15:11 47.64804 15.78209 20352 ft 374 kts 230°
2026-04-25 15:11 47.63010 15.75394 20900 ft 376 kts 230°
2026-04-25 15:11 47.61206 15.72565 21419 ft 378 kts 230°
2026-04-25 15:12 47.57574 15.66867 22461 ft 382 kts 230°
2026-04-25 15:12 47.55742 15.63997 22928 ft 384 kts 229°
2026-04-25 15:12 47.53897 15.61113 23388 ft 387 kts 229°
2026-04-25 15:12 47.52669 15.59194 23675 ft 388 kts 229°
2026-04-25 15:13 47.50235 15.55293 24173 ft 389 kts 234°
2026-04-25 15:13 47.47673 15.48320 24922 ft 388 kts 253°
2026-04-25 15:13 47.46924 15.44471 25291 ft 389 kts 255°
2026-04-25 15:14 47.46180 15.40612 25645 ft 391 kts 255°
2026-04-25 15:14 47.45429 15.36751 25978 ft 392 kts 255°
2026-04-25 15:14 47.44670 15.32867 26307 ft 394 kts 255°
2026-04-25 15:14 47.43904 15.28968 26642 ft 396 kts 255°
2026-04-25 15:15 47.43138 15.25064 26957 ft 397 kts 255°
2026-04-25 15:15 47.42366 15.21139 27289 ft 398 kts 255°
2026-04-25 15:15 47.41590 15.17202 27603 ft 400 kts 255°
2026-04-25 15:15 47.40807 15.13236 27948 ft 403 kts 255°
2026-04-25 15:16 47.40028 15.09310 28273 ft 404 kts 255°
2026-04-25 15:16 47.39238 15.05326 28564 ft 406 kts 255°
2026-04-25 15:16 47.37639 14.97291 29118 ft 409 kts 255°
2026-04-25 15:17 47.36026 14.89218 29660 ft 412 kts 255°
2026-04-25 15:17 47.35217 14.85165 29927 ft 413 kts 255°
2026-04-25 15:17 47.34401 14.81092 30158 ft 414 kts 255°
2026-04-25 15:18 47.33581 14.77013 30314 ft 415 kts 255°
2026-04-25 15:18 47.31935 14.68825 30774 ft 417 kts 255°
2026-04-25 15:18 47.31110 14.64735 31096 ft 415 kts 255°
2026-04-25 15:19 47.30286 14.60666 31388 ft 414 kts 254°
2026-04-25 15:19 47.29741 14.57981 31591 ft 413 kts 254°
2026-04-25 15:19 47.28648 14.52616 31969 ft 412 kts 254°
2026-04-25 15:19 47.27825 14.48578 32276 ft 411 kts 254°
2026-04-25 15:20 47.27002 14.44553 32583 ft 410 kts 254°
2026-04-25 15:20 47.26177 14.40541 32871 ft 408 kts 254°
2026-04-25 15:20 47.25355 14.36547 33147 ft 408 kts 254°
2026-04-25 15:20 47.24534 14.32557 33449 ft 407 kts 255°
2026-04-25 15:21 47.23716 14.28575 33764 ft 405 kts 255°
2026-04-25 15:21 47.22901 14.24616 33978 ft 404 kts 255°
2026-04-25 15:21 47.21279 14.16781 34026 ft 396 kts 254°
2026-04-25 15:22 47.19669 14.09035 34028 ft 396 kts 254°
2026-04-25 15:22 47.18054 14.01296 34022 ft 395 kts 254°
2026-04-25 15:23 47.16436 13.93562 34030 ft 396 kts 254°
2026-04-25 15:23 47.14825 13.85886 34020 ft 395 kts 254°
2026-04-25 15:24 47.13190 13.78172 34015 ft 395 kts 253°
2026-04-25 15:24 47.11812 13.71718 34015 ft 395 kts 254°
2026-04-25 15:25 47.09903 13.62757 34022 ft 395 kts 253°
2026-04-25 15:25 47.08262 13.55059 34027 ft 395 kts 253°
2026-04-25 15:26 47.06624 13.47376 34020 ft 395 kts 253°
2026-04-25 15:26 47.04982 13.39739 34021 ft 395 kts 253°
2026-04-25 15:27 47.03323 13.32060 34023 ft 395 kts 253°
2026-04-25 15:28 47.00820 13.20542 34010 ft 395 kts 253°
2026-04-25 15:28 46.99148 13.12863 34010 ft 395 kts 253°
2026-04-25 15:29 46.97469 13.05195 34019 ft 396 kts 253°
2026-04-25 15:29 46.95784 12.97527 34018 ft 396 kts 252°
2026-04-25 15:30 46.94661 12.92444 34016 ft 395 kts 253°
2026-04-25 15:30 46.92394 12.82211 34018 ft 395 kts 252°
2026-04-25 15:31 46.90703 12.74612 34018 ft 395 kts 252°
2026-04-25 15:31 46.89004 12.66962 34023 ft 396 kts 252°
2026-04-25 15:32 46.87294 12.59308 34025 ft 396 kts 252°
2026-04-25 15:32 46.85581 12.51654 34028 ft 396 kts 252°
2026-04-25 15:33 46.82991 12.40197 34040 ft 396 kts 252°
2026-04-25 15:33 46.81202 12.32601 34052 ft 396 kts 246°
2026-04-25 15:34 46.78113 12.25975 34066 ft 399 kts 226°
2026-04-25 15:34 46.75262 12.22540 34059 ft 401 kts 220°
2026-04-25 15:35 46.67111 12.13541 33980 ft 402 kts 220°
2026-04-25 15:36 46.60441 12.06170 33980 ft 401 kts 220°
2026-04-25 15:36 46.55992 12.01262 33975 ft 401 kts 220°
2026-04-25 15:37 46.51546 11.96372 33960 ft 401 kts 220°
2026-04-25 15:37 46.47095 11.91487 33963 ft 401 kts 220°
2026-04-25 15:38 46.42632 11.86612 33968 ft 401 kts 220°
2026-04-25 15:38 46.38167 11.81743 33970 ft 402 kts 220°
2026-04-25 15:39 46.33703 11.76869 33954 ft 402 kts 221°
2026-04-25 15:39 46.29248 11.72012 33960 ft 404 kts 221°
2026-04-25 15:40 46.26240 11.68745 33968 ft 404 kts 220°
2026-04-25 15:40 46.20239 11.62241 33981 ft 405 kts 220°
2026-04-25 15:41 46.15723 11.57359 33984 ft 406 kts 220°
2026-04-25 15:41 46.11204 11.52484 33998 ft 406 kts 220°
2026-04-25 15:42 46.06677 11.47610 34013 ft 406 kts 220°
2026-04-25 15:42 46.02150 11.42744 34028 ft 406 kts 220°
2026-04-25 15:43 45.97621 11.37885 34011 ft 407 kts 221°
2026-04-25 15:43 45.93067 11.33027 34013 ft 408 kts 221°
2026-04-25 15:44 45.88506 11.28165 34009 ft 408 kts 221°
2026-04-25 15:44 45.83942 11.23300 34018 ft 409 kts 221°
2026-04-25 15:45 45.80145 11.19262 34007 ft 409 kts 221°
2026-04-25 15:45 45.76342 11.15217 34002 ft 410 kts 221°
2026-04-25 15:46 45.70969 11.09530 34013 ft 411 kts 221°
2026-04-25 15:46 45.66369 11.04678 34002 ft 411 kts 220°
2026-04-25 15:47 45.61830 10.99716 33977 ft 410 kts 223°
2026-04-25 15:47 45.57542 10.94445 33980 ft 410 kts 226°
2026-04-25 15:48 45.53254 10.89060 33984 ft 411 kts 225°
2026-04-25 15:48 45.48912 10.83754 33987 ft 412 kts 225°
2026-04-25 15:49 45.44532 10.78480 33970 ft 412 kts 224°
2026-04-25 15:49 45.40145 10.73208 33977 ft 413 kts 224°
2026-04-25 15:50 45.35749 10.67916 33985 ft 414 kts 224°
2026-04-25 15:50 45.31340 10.62629 34019 ft 416 kts 224°
2026-04-25 15:51 45.29116 10.59966 34142 ft 419 kts 224°
2026-04-25 15:51 45.27641 10.58201 34225 ft 420 kts 224°
2026-04-25 15:51 45.24641 10.54615 34446 ft 422 kts 224°
2026-04-25 15:51 45.22418 10.51960 34639 ft 422 kts 223°
2026-04-25 15:52 45.20174 10.49282 34856 ft 422 kts 223°
2026-04-25 15:52 45.17928 10.46601 35061 ft 421 kts 223°
2026-04-25 15:52 45.15689 10.43930 35264 ft 421 kts 223°
2026-04-25 15:52 45.13448 10.41262 35471 ft 420 kts 223°
2026-04-25 15:53 45.11207 10.38601 35635 ft 421 kts 223°
2026-04-25 15:53 45.08962 10.35934 35774 ft 421 kts 223°
2026-04-25 15:53 45.06709 10.33258 35923 ft 422 kts 223°
2026-04-25 15:53 45.04455 10.30590 36089 ft 422 kts 223°
2026-04-25 15:54 45.02203 10.27933 36257 ft 422 kts 223°
2026-04-25 15:54 44.99949 10.25274 36434 ft 421 kts 223°
2026-04-25 15:54 44.97729 10.22654 36586 ft 421 kts 223°
2026-04-25 15:54 44.95484 10.20002 36748 ft 421 kts 223°
2026-04-25 15:55 44.93241 10.17355 36929 ft 420 kts 223°
2026-04-25 15:55 44.90995 10.14707 36996 ft 421 kts 223°
2026-04-25 15:55 44.86496 10.09422 37003 ft 421 kts 223°
2026-04-25 15:56 44.81991 10.04144 37008 ft 421 kts 223°
2026-04-25 15:56 44.77480 9.98870 37017 ft 421 kts 223°
2026-04-25 15:57 44.72971 9.93604 37016 ft 420 kts 222°
2026-04-25 15:57 44.68471 9.88352 37026 ft 420 kts 222°
2026-04-25 15:58 44.63962 9.83109 37033 ft 421 kts 222°
2026-04-25 15:58 44.59473 9.77896 37034 ft 422 kts 222°
2026-04-25 15:59 44.54946 9.72657 37042 ft 422 kts 222°
2026-04-25 15:59 44.50411 9.67421 37045 ft 422 kts 222°
2026-04-25 16:00 44.47380 9.63923 37058 ft 422 kts 222°
2026-04-25 16:00 44.41308 9.57011 37072 ft 422 kts 221°
2026-04-25 16:01 44.36691 9.51917 37081 ft 422 kts 220°
2026-04-25 16:01 44.32075 9.46831 37091 ft 422 kts 220°
2026-04-25 16:02 44.27472 9.41729 37084 ft 423 kts 221°
2026-04-25 16:02 44.22889 9.36652 37081 ft 423 kts 221°
2026-04-25 16:03 44.18273 9.31547 37088 ft 423 kts 220°
2026-04-25 16:03 44.13653 9.26461 37093 ft 423 kts 220°
2026-04-25 16:04 44.09030 9.21379 37088 ft 423 kts 220°
2026-04-25 16:04 44.04409 9.16310 37082 ft 423 kts 220°
2026-04-25 16:05 43.99791 9.11254 37091 ft 423 kts 220°
2026-04-25 16:06 43.92848 9.03677 37074 ft 423 kts 220°
2026-04-25 16:06 43.88211 8.98627 37078 ft 424 kts 220°
2026-04-25 16:07 43.83601 8.93619 37074 ft 424 kts 220°
2026-04-25 16:07 43.78953 8.88580 37075 ft 424 kts 220°
2026-04-25 16:08 43.74303 8.83544 37086 ft 425 kts 220°
2026-04-25 16:08 43.69637 8.78497 37087 ft 425 kts 220°
2026-04-25 16:09 43.64795 8.73799 37076 ft 428 kts 208°
2026-04-25 16:09 43.59092 8.71394 37090 ft 433 kts 188°
2026-04-25 16:10 43.53129 8.70793 37081 ft 429 kts 200°
2026-04-25 16:10 43.50444 8.69092 37081 ft 424 kts 213°
2026-04-25 16:10 43.47980 8.66870 37082 ft 425 kts 213°
2026-04-25 16:11 43.42770 8.62934 37076 ft 427 kts 210°
2026-04-25 16:11 43.37531 8.59029 37087 ft 429 kts 210°
2026-04-25 16:12 43.32602 8.54504 37096 ft 426 kts 223°
2026-04-25 16:12 43.28188 8.49075 37085 ft 426 kts 224°
2026-04-25 16:13 43.23804 8.43573 37078 ft 427 kts 224°
2026-04-25 16:13 43.19390 8.38111 37096 ft 428 kts 223°
2026-04-25 16:14 43.14975 8.32713 37098 ft 428 kts 223°
2026-04-25 16:14 43.10527 8.27291 37095 ft 428 kts 223°
2026-04-25 16:15 43.06072 8.21861 37095 ft 429 kts 223°
2026-04-25 16:15 43.01616 8.16426 37101 ft 429 kts 223°
2026-04-25 16:16 42.97168 8.11026 37105 ft 430 kts 223°
2026-04-25 16:16 42.92690 8.05604 37100 ft 430 kts 223°
2026-04-25 16:17 42.88208 8.00177 37106 ft 430 kts 223°
2026-04-25 16:17 42.83728 7.94768 37109 ft 430 kts 223°
2026-04-25 16:18 42.79247 7.89364 37115 ft 430 kts 223°
2026-04-25 16:18 42.74771 7.83981 37116 ft 430 kts 223°
2026-04-25 16:19 42.70283 7.78591 37105 ft 430 kts 223°
2026-04-25 16:19 42.65809 7.73247 37100 ft 431 kts 223°
2026-04-25 16:20 42.59054 7.65169 37104 ft 431 kts 223°
2026-04-25 16:21 42.52290 7.57125 37106 ft 431 kts 222°
2026-04-25 16:21 42.47806 7.51797 37116 ft 430 kts 222°
2026-04-25 16:22 42.43308 7.46453 37119 ft 430 kts 222°
2026-04-25 16:22 42.38801 7.41116 37119 ft 430 kts 222°
2026-04-25 16:23 42.34299 7.35798 37112 ft 430 kts 222°
2026-04-25 16:23 42.29786 7.30483 37104 ft 431 kts 222°
2026-04-25 16:24 42.25262 7.25169 37106 ft 431 kts 222°
2026-04-25 16:24 42.20737 7.19863 37108 ft 431 kts 222°
2026-04-25 16:25 42.16202 7.14559 37103 ft 431 kts 222°
2026-04-25 16:25 42.11668 7.09251 37103 ft 432 kts 222°
2026-04-25 16:26 42.07156 7.03973 37106 ft 432 kts 222°
2026-04-25 16:26 42.02613 6.98678 37106 ft 432 kts 222°
2026-04-25 16:27 41.98114 6.93302 37106 ft 432 kts 223°
2026-04-25 16:27 41.93692 6.87815 37101 ft 433 kts 224°
2026-04-25 16:28 41.89266 6.82330 37104 ft 433 kts 223°
2026-04-25 16:28 41.84812 6.76881 37115 ft 433 kts 223°
2026-04-25 16:29 41.80353 6.71447 37117 ft 432 kts 223°
2026-04-25 16:29 41.75894 6.66028 37111 ft 432 kts 223°
2026-04-25 16:30 41.71434 6.60621 37114 ft 433 kts 223°
2026-04-25 16:30 41.66975 6.55206 37114 ft 433 kts 223°
2026-04-25 16:31 41.62541 6.49834 37110 ft 433 kts 223°
2026-04-25 16:31 41.58069 6.44442 37116 ft 433 kts 223°
2026-04-25 16:32 41.53592 6.39062 37120 ft 433 kts 223°
2026-04-25 16:32 41.49122 6.33685 37122 ft 432 kts 223°
2026-04-25 16:33 41.45409 6.29220 37126 ft 432 kts 223°
2026-04-25 16:33 41.40937 6.23854 37125 ft 432 kts 223°
2026-04-25 16:34 41.36458 6.18493 37119 ft 432 kts 223°
2026-04-25 16:34 41.32006 6.13173 37121 ft 432 kts 223°
2026-04-25 16:35 41.27521 6.07831 37122 ft 433 kts 223°
2026-04-25 16:35 41.23032 6.02494 37127 ft 433 kts 222°
2026-04-25 16:36 41.18542 5.97172 37129 ft 433 kts 222°
2026-04-25 16:36 41.14051 5.91851 37126 ft 433 kts 222°
2026-04-25 16:37 41.09552 5.86528 37129 ft 433 kts 222°
2026-04-25 16:37 41.05049 5.81217 37130 ft 433 kts 222°
2026-04-25 16:38 41.00540 5.75909 37134 ft 433 kts 222°
2026-04-25 16:38 40.96100 5.70531 37127 ft 433 kts 229°
2026-04-25 16:38 40.94254 5.67404 37121 ft 431 kts 240°
2026-04-25 16:39 40.92857 5.63889 37126 ft 431 kts 244°
2026-04-25 16:39 40.90158 5.56854 37124 ft 432 kts 244°
2026-04-25 16:40 40.87446 5.49768 37126 ft 432 kts 244°
2026-04-25 16:40 40.84742 5.42662 37129 ft 433 kts 244°
2026-04-25 16:41 40.82025 5.35562 37130 ft 433 kts 243°
2026-04-25 16:41 40.77933 5.24926 37138 ft 433 kts 244°
2026-04-25 16:42 40.75205 5.17835 37139 ft 433 kts 244°
2026-04-25 16:42 40.72474 5.10756 37141 ft 433 kts 244°
2026-04-25 16:43 40.69732 5.03681 37141 ft 433 kts 243°
2026-04-25 16:43 40.66984 4.96620 37142 ft 433 kts 243°
2026-04-25 16:44 40.64233 4.89560 37137 ft 433 kts 243°
2026-04-25 16:44 40.61498 4.82548 37136 ft 433 kts 243°
2026-04-25 16:45 40.58737 4.75479 37146 ft 433 kts 243°
2026-04-25 16:45 40.55971 4.68417 37143 ft 434 kts 243°
2026-04-25 16:46 40.53195 4.61375 37149 ft 434 kts 243°
2026-04-25 16:46 40.50890 4.55518 37148 ft 434 kts 243°
2026-04-25 16:47 40.47674 4.47334 37143 ft 434 kts 243°
2026-04-25 16:47 40.44891 4.40300 37146 ft 434 kts 243°
2026-04-25 16:48 40.42100 4.33273 37150 ft 434 kts 243°
2026-04-25 16:48 40.39312 4.26248 37140 ft 434 kts 243°
2026-04-25 16:49 40.36527 4.19243 37139 ft 434 kts 243°
2026-04-25 16:49 40.33727 4.12235 37140 ft 433 kts 242°
2026-04-25 16:50 40.30915 4.05238 37135 ft 433 kts 242°
2026-04-25 16:50 40.28106 3.98252 37132 ft 433 kts 242°
2026-04-25 16:51 40.25302 3.91267 37130 ft 434 kts 243°
2026-04-25 16:51 40.22969 3.85445 37133 ft 434 kts 242°
2026-04-25 16:52 40.19669 3.77289 37140 ft 434 kts 242°
2026-04-25 16:52 40.16860 3.70375 37143 ft 433 kts 242°
2026-04-25 16:53 40.12622 3.59933 37144 ft 432 kts 242°
2026-04-25 16:54 40.09800 3.52999 37145 ft 432 kts 242°
2026-04-25 16:54 40.06968 3.46078 37139 ft 432 kts 242°
2026-04-25 16:55 40.04140 3.39166 37137 ft 432 kts 242°
2026-04-25 16:55 40.01328 3.32292 37140 ft 432 kts 242°
2026-04-25 16:56 39.98493 3.25388 37136 ft 431 kts 242°
2026-04-25 16:56 39.95651 3.18500 37131 ft 432 kts 241°
2026-04-25 16:57 39.92201 3.12129 37129 ft 430 kts 224°
2026-04-25 16:57 39.87381 3.07541 37009 ft 432 kts 209°
2026-04-25 16:57 39.84762 3.05637 36742 ft 431 kts 209°
2026-04-25 16:58 39.82161 3.03751 36380 ft 430 kts 209°
2026-04-25 16:58 39.79545 3.01855 35669 ft 431 kts 208°
2026-04-25 16:58 39.76931 2.99961 35087 ft 429 kts 208°
2026-04-25 16:58 39.74334 2.98080 34596 ft 425 kts 208°
2026-04-25 16:59 39.71786 2.96234 34070 ft 423 kts 208°
2026-04-25 16:59 39.69220 2.94375 33509 ft 420 kts 208°
2026-04-25 16:59 39.66674 2.92529 32996 ft 417 kts 208°
2026-04-25 16:59 39.64149 2.90702 32490 ft 413 kts 208°
2026-04-25 17:00 39.61640 2.88889 31967 ft 411 kts 208°
2026-04-25 17:00 39.59147 2.87087 31474 ft 408 kts 208°
2026-04-25 17:00 39.56674 2.85300 30980 ft 406 kts 208°
2026-04-25 17:00 39.54210 2.83526 30488 ft 404 kts 208°
2026-04-25 17:01 39.51759 2.81763 29978 ft 402 kts 209°
2026-04-25 17:01 39.49318 2.80006 29478 ft 399 kts 209°
2026-04-25 17:01 39.46907 2.78272 29018 ft 395 kts 209°
2026-04-25 17:01 39.44567 2.76439 28555 ft 392 kts 216°
2026-04-25 17:02 39.42515 2.74132 28105 ft 389 kts 227°
2026-04-25 17:02 39.40783 2.71463 27659 ft 386 kts 231°
2026-04-25 17:02 39.39101 2.68780 27219 ft 383 kts 231°
2026-04-25 17:02 39.37421 2.66119 26785 ft 380 kts 231°
2026-04-25 17:03 39.35752 2.63480 26352 ft 378 kts 231°
2026-04-25 17:03 39.34097 2.60862 25918 ft 375 kts 231°
2026-04-25 17:03 39.32450 2.58252 25481 ft 373 kts 231°
2026-04-25 17:03 39.30810 2.55655 25032 ft 372 kts 231°
2026-04-25 17:04 39.29194 2.53102 24590 ft 371 kts 231°
2026-04-25 17:04 39.27565 2.50531 24127 ft 370 kts 231°
2026-04-25 17:04 39.25933 2.47956 23660 ft 370 kts 230°
2026-04-25 17:04 39.24306 2.45389 23130 ft 369 kts 230°
2026-04-25 17:05 39.22687 2.42839 22660 ft 367 kts 230°
2026-04-25 17:05 39.19462 2.37759 21727 ft 364 kts 230°
2026-04-25 17:05 39.17858 2.35235 21257 ft 363 kts 230°
2026-04-25 17:06 39.16259 2.32720 20809 ft 362 kts 230°
2026-04-25 17:06 39.14663 2.30214 20352 ft 361 kts 230°
2026-04-25 17:06 39.13067 2.27713 19901 ft 361 kts 230°
2026-04-25 17:06 39.11470 2.25216 19444 ft 361 kts 230°
2026-04-25 17:07 39.09877 2.22724 18979 ft 361 kts 230°
2026-04-25 17:07 39.08304 2.20259 18546 ft 361 kts 230°
2026-04-25 17:07 39.06711 2.17764 18060 ft 361 kts 230°
2026-04-25 17:07 39.05120 2.15276 17607 ft 359 kts 230°
2026-04-25 17:08 39.03533 2.12795 17172 ft 357 kts 230°
2026-04-25 17:08 39.01957 2.10334 16734 ft 356 kts 230°
2026-04-25 17:08 39.00383 2.07882 16295 ft 355 kts 230°
2026-04-25 17:08 38.98813 2.05440 15863 ft 354 kts 230°
2026-04-25 17:09 38.97245 2.03002 15429 ft 353 kts 230°
2026-04-25 17:09 38.95681 2.00570 15001 ft 352 kts 230°
2026-04-25 17:09 38.94122 1.98144 14571 ft 352 kts 230°
2026-04-25 17:09 38.92563 1.95719 14143 ft 351 kts 229°
2026-04-25 17:10 38.91129 1.93191 13693 ft 351 kts 240°
2026-04-25 17:10 38.90190 1.90306 13248 ft 349 kts 255°
2026-04-25 17:10 38.89582 1.87300 12829 ft 347 kts 255°
2026-04-25 17:10 38.88977 1.84318 12404 ft 345 kts 255°
2026-04-25 17:11 38.88378 1.81383 11959 ft 343 kts 255°
2026-04-25 17:11 38.87769 1.78419 11774 ft 333 kts 255°
2026-04-25 17:11 38.87187 1.75610 11560 ft 319 kts 255°
2026-04-25 17:11 38.86629 1.72925 11022 ft 312 kts 255°
2026-04-25 17:12 38.86068 1.70211 10419 ft 308 kts 255°
2026-04-25 17:12 38.85531 1.67611 9920 ft 301 kts 255°
2026-04-25 17:12 38.84999 1.65056 9491 ft 291 kts 255°
2026-04-25 17:12 38.84487 1.62596 9102 ft 279 kts 255°
2026-04-25 17:13 38.83997 1.60229 8736 ft 271 kts 255°
2026-04-25 17:13 38.83834 1.59442 8615 ft 271 kts 255°
2026-04-25 17:13 38.83000 1.55567 7986 ft 270 kts 253°
2026-04-25 17:13 38.82486 1.53254 7618 ft 270 kts 253°
2026-04-25 17:14 38.81968 1.50940 7226 ft 270 kts 253°
2026-04-25 17:14 38.81428 1.48606 6840 ft 279 kts 252°
2026-04-25 17:14 38.80856 1.46207 6455 ft 282 kts 252°
2026-04-25 17:14 38.80283 1.43796 6049 ft 282 kts 252°
2026-04-25 17:15 38.79721 1.41429 5650 ft 281 kts 252°
2026-04-25 17:15 38.79152 1.39044 5251 ft 279 kts 252°
2026-04-25 17:15 38.78583 1.36664 4859 ft 278 kts 252°
2026-04-25 17:15 38.78012 1.34297 4450 ft 277 kts 252°
2026-04-25 17:16 38.77441 1.31951 4044 ft 274 kts 252°
2026-04-25 17:16 38.76877 1.29661 3572 ft 265 kts 252°
2026-04-25 17:16 38.76327 1.27448 3100 ft 257 kts 252°
2026-04-25 17:16 38.75786 1.25300 2612 ft 250 kts 252°
2026-04-25 17:17 38.75448 1.23159 2138 ft 242 kts 275°
2026-04-25 17:17 38.75970 1.21235 2001 ft 228 kts 310°
2026-04-25 17:17 38.77221 1.20030 2006 ft 226 kts 343°
2026-04-25 17:17 38.78757 1.19836 2006 ft 223 kts 13°
2026-04-25 17:18 38.79708 1.20270 2002 ft 215 kts 32°
2026-04-25 17:18 38.80728 1.21535 1997 ft 197 kts 60°
2026-04-25 17:18 38.81352 1.23017 2036 ft 185 kts 63°
2026-04-25 17:18 38.81945 1.24447 1948 ft 180 kts 63°
2026-04-25 17:19 38.82531 1.25858 1756 ft 179 kts 63°
2026-04-25 17:19 38.83098 1.27221 1534 ft 165 kts 62°
2026-04-25 17:19 38.83621 1.28478 1330 ft 155 kts 63°
2026-04-25 17:19 38.84122 1.29684 1121 ft 152 kts 62°
2026-04-25 17:20 38.84618 1.30880 924 ft 151 kts 63°
2026-04-25 17:20 38.85116 1.32073 757 ft 153 kts 63°
2026-04-25 17:20 38.85609 1.33278 560 ft 152 kts 63°
2026-04-25 17:20 38.86107 1.34450 354 ft 151 kts 64°
2026-04-25 17:21 38.86594 1.35641 105 ft 150 kts 64°
2026-04-25 17:21 38.87066 1.36788 12 ft 133 kts 63°
2026-04-25 17:21 38.87411 1.37624 9 ft 72 kts 62°
2026-04-25 17:21 38.87589 1.37861 11 ft 28 kts 33°
2026-04-25 17:22 38.87660 1.37908 10 ft 10 kts
2026-04-25 17:22 38.87695 1.37879 9 ft 9 kts 299°
2026-04-25 17:22 38.87671 1.37796 9 ft 7 kts 241°
2026-04-25 17:22 38.87650 1.37744 10 ft 6 kts 242°
2026-04-25 17:23 38.87631 1.37699 9 ft 5 kts 241°
2026-04-25 17:23 38.87597 1.37619 9 ft 13 kts 242°
2026-04-25 17:23 38.87581 1.37578 9 ft 2 kts 249°
2026-04-25 17:23 38.87623 1.37529 9 ft 13 kts 333°
2026-04-25 17:24 38.87692 1.37464 8 ft 12 kts 296°
2026-04-25 17:24 38.87674 1.37374 8 ft 10 kts 244°
2026-04-25 17:24 38.87643 1.37297 8 ft 10 kts 242°
2026-04-25 17:24 38.87612 1.37222 8 ft 11 kts 242°
2026-04-25 17:25 38.87564 1.37107 8 ft 16 kts 242°
2026-04-25 17:25 38.87515 1.36987 8 ft 10 kts 243°
2026-04-25 17:25 38.87510 1.36958 8 ft 8 kts 276°
2026-04-25 17:25 38.87538 1.36934 8 ft 1 kts 338°
2026-04-25 17:26 38.87548 1.36928 8 ft 4 kts 333°
2026-04-25 17:26 38.87563 1.36918 8 ft 0 kts 333°